Back to catalog

STARLINK-5273

AliveCommunicationsVLEO
NORAD 54162·PAYLOAD·🇺🇸 United States

Launched Oct 28, 2022 from Vandenberg Space Force Base

Loading…

Next Passes (next 24 hours)

TLE

FreshSource: CelesTrak SupGP

Epoch: Sep 14, 2026, 21:42 UTC

1 54162C 22141F   26257.90465278  .00722210  00000+0  27528-1 0  2576
2 54162  53.1609 243.3585 0001372  88.4488 231.6373 15.25805319    12

Track STARLINK-5273 in real time with AllMySat

Download on the App Store